Location: Unspecified
(0.0000°N, 0.0000°E)
Time: 16:36:35
(UTC+00:00)

deb NNS O-18 - Visible Passes

Search period start: 15 May 2026 00:00
Search period end: 25 May 2026 00:00
Orbit: 1010 x 1289 km, 89.8° (Epoch: 14 May)

Date Brightness Start Highest point End Pass type
(mag) Time Alt. Az. Time Alt. Az. Time Alt. Az.
15 May ? 03:18:48 10° N 03:25:13 66° N 03:25:13 66° N visible
16 May ? 02:48:18 10° NNE 02:53:48 45° NE 02:53:48 45° NE visible
16 May ? 04:39:10 10° NW 04:42:09 15° WNW 04:42:09 15° WNW visible
17 May ? 02:18:25 10° NE 02:22:26 26° ENE 02:22:26 26° ENE visible
17 May ? 04:06:25 10° NNW 04:10:47 26° WNW 04:10:47 26° WNW visible
18 May ? 01:49:34 10° NE 01:51:05 14° ENE 01:51:05 14° ENE visible
18 May ? 03:34:45 10° NNW 03:39:27 37° NW 03:39:27 37° NW visible
19 May ? 03:03:42 10° N 03:08:08 39° N 03:08:08 39° N visible
20 May ? 02:33:12 10° NNE 02:36:52 30° NNE 02:36:52 30° NNE visible
20 May ? 04:24:13 10° NW 04:25:14 12° WNW 04:25:14 12° WNW visible
21 May ? 02:03:18 10° NNE 02:05:37 19° NE 02:05:37 19° NE visible
21 May ? 03:51:23 10° NNW 03:53:59 20° NW 03:53:59 20° NW visible
22 May ? 03:19:41 10° NNW 03:22:45 25° NNW 03:22:45 25° NNW visible
23 May ? 02:48:38 10° N 02:51:33 26° N 02:51:33 26° N visible
24 May ? 02:18:07 10° NNE 02:20:22 21° NNE 02:20:22 21° NNE visible
